Location: Nebraska Star Party
(42.6000°N, 100.8833°W)
Time: 19:40:43
(UTC-05:00)

Amateur Radio Satellites - All Passes

Search period start: 24 July 2017 19:10
Search period end: 25 July 2017 19:10
Location: Nebraska Star Party, 42.6000°N, 100.8833°W

Satellite Date Start Highest point End Downlink Frequencies (MHz)
Time Altitude Azimuth
KKS-1 24 Jul 19:22:24 19:26:35 40° 290° (WNW) 19:30:44 437.445
XW-2D 24 Jul 19:25:27 19:29:04 45° 261° (W) 19:32:42 145.860 - 145.880
XW-2B 24 Jul 19:35:40 19:39:09 35° 262° (W) 19:42:38 145.730 - 145.750
CUBEBUG 2 24 Jul 19:36:31 19:40:01 21° 66° (ENE) 19:43:28 437.445
YUBILEINY 24 Jul 19:49:09 19:57:51 66° 92° (E) 20:06:33 435.215
XW-2C 24 Jul 19:53:37 19:56:35 22° 265° (W) 19:59:33 145.795 - 145.815
STARS 24 Jul 19:53:38 19:57:49 43° 289° (WNW) 20:01:58 437.465
DOVE 4 24 Jul 19:54:32 19:57:10 14° 272° (W) 19:59:52 437.250
XW-2A 24 Jul 19:55:29 19:58:27 29° 71° (ENE) 20:01:26 145.665 - 145.685
CUTE 1.7 + AOD 2 24 Jul 20:01:27 20:05:35 65° 75° (ENE) 20:09:45 437.475
HO-68 24 Jul 20:01:47 20:08:58 81° 72° (ENE) 20:16:10 435.675
NUDT-PHONESAT 24 Jul 20:03:28 20:06:22 22° 265° (W) 20:09:17 437.300
STRAND 1 24 Jul 20:09:22 20:12:55 19° 92° (E) 20:16:26 437.568
SEEDS 24 Jul 20:14:42 20:18:46 57° 74° (ENE) 20:22:52 437.485
KAITUO 1B 24 Jul 20:17:57 20:20:09 15° 268° (W) 20:22:20 145.475/437.950
LilacSat-2 24 Jul 20:18:19 20:19:36 11° 269° (W) 20:20:54 437.200
RS-15 24 Jul 20:19:33 20:30:08 31° 336° (NNW) 20:40:41 29.354- 29.394
Tancredo 1 24 Jul 20:32:30 20:34:23 16° 134° (SE) 20:36:16 437.200
UWE-3 24 Jul 20:34:34 20:38:57 47° 72° (ENE) 20:43:15 435.000/436.395/437.385
NO-84 24 Jul 20:34:59 20:37:59 20° 232° (SW) 20:41:05 435.350 FM
ZACube-1 24 Jul 20:49:42 20:53:47 37° 71° (ENE) 20:57:49 437.345
CUTE-I 24 Jul 20:50:05 20:52:31 13° 271° (W) 20:54:59 437.470
AO-85 24 Jul 20:53:55 20:55:37 12° 38° (NE) 20:57:20 145.980
AAUSAT CUBESAT 2 24 Jul 20:59:39 21:03:45 85° 76° (ENE) 21:07:53 437.432
CUBEBUG 2 24 Jul 21:11:52 21:16:20 43° 262° (W) 21:20:45 437.445
Oscar 11 24 Jul 21:16:35 21:20:43 49° 73° (ENE) 21:24:52 .
XW-2A 24 Jul 21:29:14 21:31:15 15° 267° (W) 21:33:17 145.665 - 145.685
AO-73 24 Jul 21:29:47 21:34:14 89° 269° (W) 21:38:36 145.935
ISS 24 Jul 21:38:20 21:41:09 28° 137° (SE) 21:44:00 437.550
CUTE 1.7 + AOD 2 24 Jul 21:40:48 21:41:51 11° 271° (W) 21:42:53 437.475
STRAND 1 24 Jul 21:47:26 21:52:25 54° 289° (WNW) 21:57:22 437.568
YUBILEINY 24 Jul 21:47:56 21:55:19 29° 293° (WNW) 22:02:44 435.215
HO-68 24 Jul 21:52:38 21:57:26 19° 270° (W) 22:02:16 435.675
SEEDS 24 Jul 21:53:08 21:54:48 12° 270° (W) 21:56:29 437.485
BEESAT 3 24 Jul 21:57:16 22:00:55 32° 49° (NE) 22:04:31 437.485
FO-29 24 Jul 21:58:21 22:02:54 18° 85° (E) 22:07:07 435.910
DELFI C3 24 Jul 22:06:10 22:09:52 41° 72° (ENE) 22:13:36 145.870
Tancredo 1 24 Jul 22:06:37 22:09:30 54° 329° (NNW) 22:12:24 437.200
UWE-3 24 Jul 22:12:33 22:15:36 17° 268° (W) 22:18:38 435.000/436.395/437.385
nSIGHT-1 24 Jul 22:20:24 22:23:37 76° 145° (SE) 22:26:51 .
ZACube-1 24 Jul 22:26:50 22:30:10 21° 267° (W) 22:33:28 437.345
AO-85 24 Jul 22:32:26 22:36:38 77° 55° (NE) 22:41:08 145.980
TIGRISAT 24 Jul 22:33:32 22:34:54 11° 89° (E) 22:36:16 435.000
BEESAT 2 24 Jul 22:36:09 22:39:46 30° 48° (NE) 22:43:21 435.950
RS-15 24 Jul 22:38:04 22:47:56 26° 11° (N) 22:57:32 29.354- 29.394
EO-88 24 Jul 22:38:58 22:42:34 64° 74° (ENE) 22:46:11 145.990 - 145.960
LO-87 24 Jul 22:47:34 22:48:18 10° 63° (ENE) 22:49:03 145.935 - 145.965
Oscar 11 24 Jul 22:54:37 22:57:07 15° 269° (W) 22:59:38 .
ISS 24 Jul 23:14:28 23:17:33 39° 334° (NNW) 23:20:39 437.550
UNISAT 6 24 Jul 23:23:27 23:27:37 44° 98° (E) 23:31:42 437.425
PRISM 24 Jul 23:27:01 23:30:57 39° 99° (E) 23:34:51 437.425
BEESAT 3 24 Jul 23:35:06 23:38:21 24° 247° (WSW) 23:41:32 437.485
FO-29 24 Jul 23:41:39 23:48:54 80° 287° (WNW) 23:55:15 435.910
DELFI C3 24 Jul 23:42:32 23:44:50 15° 269° (W) 23:47:09 145.870
Tancredo 1 24 Jul 23:43:23 23:45:24 17° 349° (N) 23:47:24 437.200
ESTCUBE 1 24 Jul 23:55:21 23:59:36 45° 72° (ENE) 00:03:52 437.505/2401.250
nSIGHT-1 24 Jul 23:57:38 00:00:19 23° 343° (NNW) 00:03:00 .
SPROUT 25 Jul 00:01:33 00:03:46 14° 63° (ENE) 00:06:00 437.525
TIGRISAT 25 Jul 00:07:46 00:12:03 64° 286° (WNW) 00:16:16 435.000
BEESAT 2 25 Jul 00:13:58 00:17:27 28° 246° (WSW) 00:20:53 435.950
AO-85 25 Jul 00:15:07 00:16:32 11° 251° (WSW) 00:18:00 145.980
LO-87 25 Jul 00:17:40 00:21:13 57° 259° (W) 00:24:50 145.935 - 145.965
M-CUBED/EXP-1 PRIME 25 Jul 00:25:22 00:29:58 68° 107° (ESE) 00:34:37 437.505
VELOX 1 25 Jul 00:42:32 00:46:28 32° 69° (ENE) 00:50:26 145.980
DX 1 25 Jul 00:50:58 00:53:05 13° 61° (ENE) 00:55:12 434.975-435.025
RS-15 25 Jul 00:52:22 01:04:15 52° 43° (NE) 01:15:29 29.354- 29.394
ISS 25 Jul 00:52:23 00:54:39 17° 354° (N) 00:56:56 437.550
AIST 2D 25 Jul 00:54:06 00:57:34 58° 101° (E) 01:01:00 435.315
UNISAT 6 25 Jul 01:01:06 01:03:58 18° 296° (WNW) 01:06:49 437.425
PRISM 25 Jul 01:02:59 01:05:56 19° 295° (WNW) 01:08:51 437.425
Tancredo 1 25 Jul 01:19:43 01:21:38 16° 9° (N) 01:23:34 437.200
50 SAT 25 Jul 01:23:09 01:26:12 31° 71° (ENE) 01:29:15 437.505
DUCHIFAT 1 25 Jul 01:24:04 01:28:02 40° 98° (E) 01:31:58 145.980
POLYITAN 1 25 Jul 01:26:06 01:30:14 54° 100° (E) 01:34:20 437.675
FO-29 25 Jul 01:28:28 01:32:37 17° 308° (NW) 01:36:33 435.910
O/OREOS (USA 219) 25 Jul 01:32:18 01:36:22 32° 60° (ENE) 01:40:25 437.305
UKube-1 25 Jul 01:32:32 01:35:58 24° 66° (ENE) 01:39:25 .
ESTCUBE 1 25 Jul 01:33:36 01:36:37 18° 268° (W) 01:39:39 437.505/2401.250
SPROUT 25 Jul 01:34:56 01:39:11 59° 260° (W) 01:43:26 437.525
nSIGHT-1 25 Jul 01:35:22 01:37:32 16° 3° (N) 01:39:42 .
QB50P2 25 Jul 01:39:05 01:43:19 85° 99° (E) 01:47:31 145.880/145.840
EO-79 25 Jul 01:51:14 01:55:28 77° 284° (WNW) 01:59:38 145.935-145.965
NANOSAT C BR1 25 Jul 01:51:24 01:55:37 85° 280° (W) 01:59:47 145.865
BUGSAT 1 25 Jul 01:54:10 01:57:34 24° 95° (E) 02:00:52 437.445
M-CUBED/EXP-1 PRIME 25 Jul 02:01:06 02:03:52 16° 303° (WNW) 02:06:40 437.505
Oscar 19 25 Jul 02:06:27 02:09:35 16° 91° (E) 02:12:44 437.125/150
VELOX 1 25 Jul 02:19:21 02:22:56 24° 265° (W) 02:26:34 145.980
DX 1 25 Jul 02:24:24 02:28:43 65° 258° (WSW) 02:33:05 434.975-435.025
ISS 25 Jul 02:29:26 02:32:00 21° 14° (NNE) 02:34:33 437.550
Gurwin Techsat 1B 25 Jul 02:30:38 02:34:12 18° 91° (E) 02:37:44 435.225
Tancredo 1 25 Jul 02:54:44 02:57:35 44° 29° (NNE) 03:00:26 437.200
50 SAT 25 Jul 02:57:07 02:59:01 14° 267° (W) 03:00:56 437.505
DUCHIFAT 1 25 Jul 03:00:32 03:03:24 18° 295° (WNW) 03:06:15 145.980
BEESAT 25 Jul 03:01:14 03:05:00 24° 65° (ENE) 03:08:47 436.000
POLYITAN 1 25 Jul 03:03:18 03:05:33 14° 297° (WNW) 03:07:48 437.675
RS-15 25 Jul 03:05:21 03:16:52 55° 248° (WSW) 03:27:48 29.354- 29.394
UKube-1 25 Jul 03:07:56 03:11:49 32° 263° (W) 03:15:44 .
nSIGHT-1 25 Jul 03:11:42 03:14:39 31° 23° (NNE) 03:17:35 .
O/OREOS (USA 219) 25 Jul 03:11:56 03:15:37 25° 257° (WSW) 03:19:18 437.305
ITUPSAT 1 25 Jul 03:13:54 03:18:03 30° 67° (ENE) 03:22:13 437.325
BUGSAT 1 25 Jul 03:29:23 03:32:52 27° 292° (WNW) 03:36:18 437.445
Oscar 19 25 Jul 03:44:13 03:49:20 64° 287° (WNW) 03:54:26 437.125/150
ITAMSAT 1 25 Jul 03:58:18 04:00:40 13° 89° (E) 04:03:00 435.822/435.867
MOZHAYETS 4 25 Jul 04:02:18 04:06:49 65° 74° (ENE) 04:11:21
ISS 25 Jul 04:05:36 04:08:52 77° 33° (NNE) 04:12:07 437.550
Gurwin Techsat 1B 25 Jul 04:09:17 04:14:32 60° 288° (WNW) 04:19:45 435.225
AO-7 25 Jul 04:28:47 04:36:11 34° 97° (E) 04:43:31 .
Tancredo 1 25 Jul 04:30:33 04:32:48 20° 225° (SW) 04:35:02 437.200
CUBESAT XI-V 25 Jul 04:37:12 04:41:10 30° 68° (ENE) 04:45:10 437.345
BEESAT 25 Jul 04:38:04 04:42:32 39° 262° (W) 04:47:02 436.000
KKS-1 25 Jul 04:45:18 04:48:40 21° 65° (ENE) 04:52:04 437.445
nSIGHT-1 25 Jul 04:48:04 04:51:07 39° 220° (SW) 04:54:08 .
ITUPSAT 1 25 Jul 04:51:37 04:55:49 30° 264° (W) 05:00:02 437.325
STARS 25 Jul 05:15:34 05:18:40 19° 64° (ENE) 05:21:47 437.465
PCSat 25 Jul 05:16:23 05:20:38 24° 107° (ESE) 05:24:55 145.827
ITAMSAT 1 25 Jul 05:35:29 05:40:42 78° 286° (WNW) 05:45:53 435.822/435.867
MOZHAYETS 4 25 Jul 05:42:23 05:44:24 13° 270° (W) 05:46:26
ISS 25 Jul 05:43:19 05:44:56 13° 229° (SW) 05:46:32 437.550
YUBILEINY 25 Jul 05:58:51 06:06:37 34° 69° (ENE) 06:14:17 435.215
DOVE 4 25 Jul 06:13:11 06:17:00 20° 90° (E) 06:20:45 437.250
CUBESAT XI-V 25 Jul 06:14:34 06:18:29 28° 265° (W) 06:22:27 437.345
KKS-1 25 Jul 06:20:46 06:24:57 39° 261° (W) 06:29:11 437.445
AO-7 25 Jul 06:21:08 06:29:16 57° 295° (WNW) 06:37:20 .
STARS 25 Jul 06:50:26 06:54:40 44° 260° (W) 06:58:56 437.465
XW-2D 25 Jul 06:57:57 07:00:22 16° 93° (E) 07:02:48 145.860 - 145.880
PCSat 25 Jul 06:58:24 07:03:40 51° 305° (NW) 07:08:59 145.827
XW-2B 25 Jul 07:07:39 07:10:30 20° 94° (E) 07:13:21 145.730 - 145.750
SO-50 25 Jul 07:14:56 07:19:19 50° 118° (ESE) 07:23:41 436.795
ITAMSAT 1 25 Jul 07:17:49 07:19:16 11° 304° (NW) 07:20:44 435.822/435.867
CUTE-I 25 Jul 07:23:13 07:27:55 30° 96° (E) 07:32:34 437.470
XW-2C 25 Jul 07:24:33 07:27:58 32° 97° (E) 07:31:24 145.795 - 145.815
STRAND 1 25 Jul 07:25:35 07:30:00 30° 66° (ENE) 07:34:25 437.568
HO-68 25 Jul 07:31:19 07:34:40 14° 87° (E) 07:38:00 435.675
NUDT-PHONESAT 25 Jul 07:32:17 07:35:32 29° 97° (E) 07:38:46 437.300
KAITUO 1B 25 Jul 07:46:29 07:50:04 46° 99° (E) 07:53:40 145.475/437.950
LilacSat-2 25 Jul 07:47:44 07:51:30 70° 100° (E) 07:55:17 437.200
CUTE 1.7 + AOD 2 25 Jul 07:48:02 07:49:00 11° 89° (E) 07:49:59 437.475
DOVE 4 25 Jul 07:49:51 07:54:59 52° 288° (WNW) 07:59:56 437.250
YUBILEINY 25 Jul 07:55:20 08:03:48 56° 270° (W) 08:12:12 435.215
XW-2F 25 Jul 08:02:08 08:05:55 86° 278° (W) 08:09:40 145.980 - 146.000
FO-29 25 Jul 08:13:03 08:16:05 13° 49° (NE) 08:19:07 435.910
AO-7 25 Jul 08:16:19 08:20:15 14° 317° (NW) 08:24:11 .
XW-2D 25 Jul 08:31:14 08:34:40 34° 289° (WNW) 08:38:05 145.860 - 145.880
XW-2B 25 Jul 08:41:28 08:44:42 27° 290° (WNW) 08:47:55 145.730 - 145.750
AAUSAT CUBESAT 2 25 Jul 08:42:39 08:44:30 13° 90° (E) 08:46:21 437.432
PCSat 25 Jul 08:46:37 08:48:24 11° 327° (NNW) 08:50:11 145.827
XW-2A 25 Jul 08:48:54 08:51:48 27° 97° (E) 08:54:41 145.665 - 145.685
SO-50 25 Jul 08:56:24 09:00:01 23° 317° (NW) 09:03:39 436.795
XW-2C 25 Jul 08:59:22 09:01:56 18° 293° (WNW) 09:04:29 145.795 - 145.815
CUBEBUG 2 25 Jul 09:02:04 09:06:00 36° 97° (E) 09:09:50 437.445
CUTE-I 25 Jul 09:03:06 09:07:59 36° 293° (WNW) 09:12:49 437.470
STRAND 1 25 Jul 09:04:21 09:09:03 35° 263° (W) 09:13:47 437.568
NUDT-PHONESAT 25 Jul 09:06:37 09:09:13 19° 293° (WNW) 09:11:49 437.300
HO-68 25 Jul 09:16:14 09:23:27 80° 106° (ESE) 09:30:36 435.675
AO-73 25 Jul 09:18:16 09:20:43 15° 91° (E) 09:23:10 145.935
CUTE 1.7 + AOD 2 25 Jul 09:21:03 09:25:16 68° 285° (WNW) 09:29:29 437.475
KAITUO 1B 25 Jul 09:21:56 09:23:40 13° 295° (WNW) 09:25:26 145.475/437.950
TIGRISAT 25 Jul 09:32:33 09:34:47 14° 62° (ENE) 09:37:00 435.000
SEEDS 25 Jul 09:32:59 09:37:13 79° 283° (WNW) 09:41:26 437.485
FO-29 25 Jul 09:52:00 09:59:24 55° 68° (ENE) 10:07:00 435.910
UWE-3 25 Jul 09:59:37 10:03:50 86° 283° (WNW) 10:07:58 435.000/436.395/437.385
ZACube-1 25 Jul 10:12:58 10:17:07 72° 101° (E) 10:21:14 437.345
AAUSAT CUBESAT 2 25 Jul 10:16:12 10:20:17 56° 286° (WNW) 10:24:22 437.432
PRISM 25 Jul 10:16:50 10:20:26 30° 69° (ENE) 10:24:04 437.425
XW-2A 25 Jul 10:22:12 10:24:19 16° 293° (WNW) 10:26:26 145.665 - 145.685
UNISAT 6 25 Jul 10:22:20 10:26:44 44° 71° (ENE) 10:31:05 437.425
Oscar 11 25 Jul 10:38:42 10:43:02 87° 288° (WNW) 10:47:22 .
CUBEBUG 2 25 Jul 10:39:15 10:42:22 20° 294° (WNW) 10:45:26 437.445
AO-73 25 Jul 10:53:15 10:57:12 44° 288° (WNW) 11:01:06 145.935
HO-68 25 Jul 11:05:13 11:10:22 22° 304° (NW) 11:15:32 435.675
TIGRISAT 25 Jul 11:06:16 11:10:55 71° 259° (W) 11:15:30 435.000
M-CUBED/EXP-1 PRIME 25 Jul 11:12:00 11:15:38 89° 69° (ENE) 11:19:37 437.505
DELFI C3 25 Jul 11:16:37 11:20:37 63° 102° (ESE) 11:24:35 145.870
AIST 2D 25 Jul 11:29:24 11:32:10 22° 69° (ENE) 11:34:57 435.315
FO-29 25 Jul 11:37:49 11:44:35 34° 267° (W) 11:51:38 435.910
EO-88 25 Jul 11:40:21 11:44:01 77° 102° (ESE) 11:47:39 145.990 - 145.960
LO-87 25 Jul 11:46:23 11:46:57 10° 90° (E) 11:47:31 145.935 - 145.965
NO-84 25 Jul 11:51:47 11:54:37 39° 133° (SE) 11:57:39 435.350 FM
ZACube-1 25 Jul 11:51:48 11:52:48 11° 299° (WNW) 11:53:47 437.345
PRISM 25 Jul 11:52:30 11:55:43 22° 265° (W) 11:58:59 437.425
UNISAT 6 25 Jul 12:00:17 12:03:36 19° 267° (W) 12:06:55 437.425
DUCHIFAT 1 25 Jul 12:16:16 12:20:03 33° 70° (ENE) 12:23:52 145.980
POLYITAN 1 25 Jul 12:18:55 12:22:58 44° 72° (ENE) 12:27:02 437.675
QB50P2 25 Jul 12:31:46 12:36:00 68° 74° (ENE) 12:40:16 145.880/145.840
NANOSAT C BR1 25 Jul 12:43:30 12:47:45 75° 75° (ENE) 12:52:00 145.865
EO-79 25 Jul 12:43:40 12:47:56 84° 76° (ENE) 12:52:13 145.935-145.965
BUGSAT 1 25 Jul 12:44:32 12:47:42 21° 66° (ENE) 12:50:51 437.445
AO-85 25 Jul 12:49:02 12:51:47 18° 112° (ESE) 12:54:29 145.980
DELFI C3 25 Jul 12:53:26 12:54:51 12° 297° (WNW) 12:56:15 145.870
AIST 2D 25 Jul 13:02:37 13:05:18 21° 265° (W) 13:08:00 435.315
LO-87 25 Jul 13:17:10 13:20:41 49° 286° (WNW) 13:24:08 145.935 - 145.965
SPROUT 25 Jul 13:20:25 13:23:42 21° 94° (E) 13:26:57 437.525
ESTCUBE 1 25 Jul 13:23:17 13:27:50 90° 287° (WNW) 13:32:23 437.505/2401.250
Oscar 19 25 Jul 13:23:38 13:27:49 26° 65° (ENE) 13:32:01 437.125/150
BEESAT 3 25 Jul 13:24:20 13:28:06 42° 118° (ESE) 13:31:57 437.485
NO-84 25 Jul 13:29:30 13:32:10 24° 333° (NNW) 13:35:02 435.350 FM
AO-7 25 Jul 13:42:16 13:45:22 13° 41° (NE) 13:48:27 .
Gurwin Techsat 1B 25 Jul 13:52:01 13:56:38 31° 66° (ENE) 14:01:17 435.225
DUCHIFAT 1 25 Jul 13:52:28 13:55:46 22° 266° (W) 13:59:05 145.980
POLYITAN 1 25 Jul 13:56:13 13:58:57 17° 268° (W) 14:01:42 437.675
PCSat 25 Jul 14:02:33 14:07:04 26° 46° (NE) 14:11:34 145.827
BEESAT 2 25 Jul 14:05:02 14:08:44 39° 117° (ESE) 14:12:31 435.950
SO-50 25 Jul 14:07:05 14:08:18 11° 32° (NNE) 14:09:33 436.795
VELOX 1 25 Jul 14:07:25 14:11:51 58° 101° (E) 14:16:13 145.980
QB50P2 25 Jul 14:11:10 14:12:14 11° 271° (W) 14:13:17 145.880/145.840
DX 1 25 Jul 14:12:29 14:15:45 20° 94° (E) 14:18:59 434.975-435.025
50 SAT 25 Jul 14:16:48 14:19:49 28° 97° (E) 14:22:49 437.505
BUGSAT 1 25 Jul 14:18:53 14:22:48 36° 262° (W) 14:26:44 437.445
AO-85 25 Jul 14:28:06 14:31:52 40° 309° (NW) 14:35:35 145.980
UKube-1 25 Jul 14:53:43 14:57:44 36° 98° (E) 15:01:44 .
SPROUT 25 Jul 14:55:48 14:59:40 34° 290° (WNW) 15:03:30 437.525
Oscar 19 25 Jul 15:02:09 15:06:55 40° 262° (W) 15:11:45 437.125/150
BEESAT 3 25 Jul 15:02:44 15:05:52 21° 316° (NW) 15:09:01 437.485
ESTCUBE 1 25 Jul 15:03:13 15:03:54 10° 301° (WNW) 15:04:36 437.505/2401.250
NO-84 25 Jul 15:09:25 15:10:41 12° 355° (N) 15:11:59 435.350 FM
ITAMSAT 1 25 Jul 15:16:07 15:20:13 24° 63° (ENE) 15:24:19 435.822/435.867
RS-15 25 Jul 15:18:42 15:27:58 27° 100° (E) 15:37:17 29.354- 29.394
AO-7 25 Jul 15:28:13 15:36:09 51° 63° (ENE) 15:44:08 .
Gurwin Techsat 1B 25 Jul 15:31:39 15:36:29 35° 263° (W) 15:41:21 435.225
BEESAT 2 25 Jul 15:43:24 15:46:37 23° 315° (NW) 15:49:54 435.950
VELOX 1 25 Jul 15:45:15 15:47:49 15° 298° (WNW) 15:50:21 145.980
SO-50 25 Jul 15:45:18 15:49:46 54° 52° (NE) 15:54:15 436.795
O/OREOS (USA 219) 25 Jul 15:45:24 15:49:23 32° 105° (ESE) 15:53:22 437.305
PCSat 25 Jul 15:45:30 15:50:47 54° 246° (WSW) 15:56:02 145.827
DX 1 25 Jul 15:47:58 15:52:03 38° 290° (WNW) 15:56:06 434.975-435.025
50 SAT 25 Jul 15:50:03 15:52:19 17° 293° (WNW) 15:54:35 437.505
MOZHAYETS 4 25 Jul 15:57:59 16:00:26 14° 90° (E) 16:02:52
UKube-1 25 Jul 16:30:13 16:33:32 22° 295° (WNW) 16:36:49 .
BEESAT 25 Jul 16:37:00 16:41:36 47° 99° (E) 16:46:10 436.000
NO-84 25 Jul 16:47:11 16:49:25 15° 17° (NNE) 16:51:45 435.350 FM
ITUPSAT 1 25 Jul 16:50:29 16:55:13 64° 101° (ESE) 16:59:56 437.325
ITAMSAT 1 25 Jul 16:54:20 16:59:22 47° 260° (W) 17:04:25 435.822/435.867
DOVE 4 25 Jul 17:19:00 17:22:43 22° 64° (ENE) 17:26:35 437.250
AO-7 25 Jul 17:21:24 17:29:03 39° 262° (W) 17:36:47 .
O/OREOS (USA 219) 25 Jul 17:25:00 17:28:48 26° 302° (WNW) 17:32:36 437.305
RS-15 25 Jul 17:26:38 17:38:53 88° 303° (WNW) 17:51:21 29.354- 29.394
SO-50 25 Jul 17:26:46 17:29:50 18° 249° (WSW) 17:32:53 436.795
MOZHAYETS 4 25 Jul 17:33:28 17:37:57 58° 287° (WNW) 17:42:25
XW-2B 25 Jul 17:51:02 17:52:28 12° 64° (ENE) 17:53:55 145.730 - 145.750
HO-68 25 Jul 18:02:34 18:05:44 13° 49° (NE) 18:08:54 435.675
XW-2C 25 Jul 18:07:04 18:09:42 18° 67° (ENE) 18:12:20 145.795 - 145.815
CUBESAT XI-V 25 Jul 18:09:15 18:13:55 67° 101° (E) 18:18:34 437.345
KKS-1 25 Jul 18:10:43 18:14:51 35° 98° (E) 18:18:56 437.445
NUDT-PHONESAT 25 Jul 18:12:58 18:15:14 16° 66° (ENE) 18:17:31 437.300
BEESAT 25 Jul 18:15:36 18:19:02 20° 297° (WNW) 18:22:27 436.000
NO-84 25 Jul 18:23:53 18:27:35 49° 36° (NE) 18:31:33 435.350 FM
KAITUO 1B 25 Jul 18:27:23 18:30:22 23° 69° (ENE) 18:33:20 145.475/437.950
ITUPSAT 1 25 Jul 18:29:43 18:32:32 16° 299° (WNW) 18:35:19 437.325
LilacSat-2 25 Jul 18:30:09 18:33:36 35° 72° (ENE) 18:37:05 437.200
STARS 25 Jul 18:39:03 18:42:55 29° 96° (E) 18:46:45 437.465
XW-2F 25 Jul 18:43:21 18:46:56 46° 73° (ENE) 18:50:31 145.980 - 146.000
CUTE-I 25 Jul 18:45:27 18:50:39 53° 71° (ENE) 18:55:54 437.470
DOVE 4 25 Jul 18:55:15 18:59:59 49° 262° (W) 19:05:00 437.250
